User: anonymous   Login
Location: Unspecified
(0.0000°N, 0.0000°E)
Time: 00:13:56
(UTC+00:00)
Language:

USA 82 - Orbit

View from above orbital plane
View from above orbital plane
View from above satellite
View from above satellite

Ground track
Ground track

The orbit data is extracted from the following two-line orbital elements,

1 22009U 92037A   18300.34551779 0.00000000  00000-0  00000-0 0    00
2 22009  12.2987  29.6412 0010570 323.1647  36.7748  0.98804403    08
Epoch (UTC): 27 October 2018 08:17:32
Eccentricity: 0.0010570
inclination: 12.2987°
perigee height: 36157 km
apogee height: 36247 km
right ascension of ascending node: 29.6412°
argument of perigee: 323.1647°
revolutions per day: 0.98804403
mean anomaly at epoch: 36.7748°
orbit number at epoch: 0

The dashed part of the orbit path shows where the satellite is in the earth's shadow,  

DLR